Simultaneous Nadir Overpasses (SNOs) Predictions

Prediction of SNOs over PacNW region [( 10.00, 139.50) to ( 22.70, 165.60)] between NOAA-19 and NPP Satellites:

Table of predicted SNOs over PacNW region for the next 30.0 days since TLE Epoch: 5/5/2014
Index Date (NOAA-19) Time (NOAA-19) NOAA-19 Lat,Lon Date (NPP) Time (NPP) NPP Lat,Lon Distance(km) Time Diff (sec)
1 05/08/2014 16:07:23 22.67, 149.32 05/08/2014 16:07:23 23.86, 144.60 500.27 0
2 05/09/2014 03:23:44 22.67, 152.75 05/09/2014 03:20:12 21.91, 148.96 398.83 212
3 05/21/2014 15:25:31 18.95, 159.26 05/21/2014 15:24:27 19.87, 154.70 488.98 64
4 06/03/2014 03:49:41 17.88, 147.38 06/03/2014 03:51:03 16.71, 142.30 554.81 82
5 06/03/2014 16:26:09 13.25, 143.28 06/03/2014 16:23:28 14.18, 139.07 465.79 161




NCC Satellite Simultaneous Nadir Overpasses (SNOs) Prediction Service
